Weather Service Report


352 
ASUS46 KLOX 261413
RWRCA 

SOUTHERN CALIFORNIA WEATHER ROUNDUP
NATIONAL WEATHER SERVICE OXNARD CALIFORNIA
700 AM PDT SUN MAR 26 2017

NOTE: "FAIR" INDICATES FEW OR NO CLOUDS BELOW 12,000 FEET WITH NO 
SIGNIFICANT WEATHER AND/OR OBSTRUCTIONS TO VISIBILITY.

  -  STATIONS PRECEEDED BY AN ASTERISK (*) ARE NOT NWS OR FAA 
     STATIONS AND ARE NOT SUBJECT TO NWS AND FAA QUALITY CONTROL.

CAZ041-042-087-261500-
LA AND ORANGE COUNTY COASTAL AREAS

  
CITY           SKY/WX    TMP DP  RH WIND       PRES   REMARKS
L.A. DOWNTOWN  CLOUDY    58  52  80 NE5       30.02S                  
L.A. AIRPORT   PTCLDY    54  52  93 E3        30.03R                  
LONG BEACH     CLOUDY    55  52  89 CALM      30.03R                  

CITY           SKY/WX    TMP DP  RH WIND       PRES   REMARKS
AVALON           N/A     48 N/A N/A S3          N/A                   
FULLERTON      CLOUDY    54  51  90 E3        30.03R                  
*GETTY CENTER    N/A     50  50 100 N2          N/A                   
HAWTHORNE      MOCLDY    57  53  86 CALM      30.03R                  
*LEO CARRILLO    N/A     52  48  85 N3          N/A                   
*LOS ALAMITOS  CLOUDY    54  51  90 CALM      30.03R                  
*REDONDO BEACH   N/A     50  47  89 CALM      30.02R                  
SANTA ANA      CLOUDY    56  52  86 CALM      30.03R                  
STA MONICA APT PTCLDY    54  52  93 CALM      30.03R                  
TORRANCE       CLOUDY    50  48  93 CALM      30.03                   
*UCLA            N/A     55  50  82 N3        30.01R                  

$$

CAZ547-548-048-261500-
LA COUNTY VALLEYS AND INLAND EMPIRE

  
CITY           SKY/WX    TMP DP  RH WIND       PRES   REMARKS
BURBANK        CLOUDY    51  47  86 CALM      30.02R                  
VAN NUYS       CLOUDY    52  52 100 CALM      30.02S FOG              

CITY           SKY/WX    TMP DP  RH WIND       PRES   REMARKS
CORONA AIRPORT MOSUNNY   43  42  97 CALM      30.04R                  
*CHATSWORTH      N/A     49  45  87 CALM      30.06R                  
CHINO          MOCLDY    50  48  93 CALM      30.05R                  
*CLAREMONT       N/A     47  45  94 CALM        N/A                   
MARCH AFB      CLOUDY    47  47 100 CALM      30.02R                  
ONTARIO        MOCLDY    52  51  97 CALM      30.03R                  
*PASADENA        N/A     52  48  87 CALM        N/A                   
POMONA         MOCLDY    48  46  93 CALM        N/A                   
RIVERSIDE      MOCLDY    52  50  93 CALM      30.03R                  
SAN BERNARDINO CLOUDY    55  41  58 CALM      30.03R                  
*SAN RAFAEL HI   N/A     49  49  98 W3          N/A                   
*SAUGUS          N/A     46  43  88 NE3         N/A                   
*WHITEMAN AP   NOT AVBL                                               
*WHITTIER HILL   N/A     52  52 100 CALM        N/A                   
*WOODLAND HILL   N/A     48  46  93 S2          N/A                   

$$

CAZ054-055-261500-
LA AND SAN BERNARDINO COUNTY MOUNTAINS

  
CITY           SKY/WX    TMP DP  RH WIND       PRES   REMARKS
*ACTON           N/A     36  36 100 NE2         N/A                   
*BIG BEAR AIRP SUNNY     23  18  80 CALM      30.06S                  
*BIG PINES       N/A     38   3  22 CALM        N/A                   
*CHILAO          N/A     39  35  85 CALM        N/A                   
SANDBERG       PTCLDY    42  39  89 N22       30.04R WCI  33          
*WARM SPRINGS    N/A     41  39  94 W12         N/A  WCI  34          

$$

CAZ028-029-059-060-099-261500-
ANTELOPE VALLEY AND SURROUNDING AREAS

  
CITY           SKY/WX    TMP DP  RH WIND       PRES   REMARKS
LANCASTER      CLEAR     45  40  82 SW3       30.02R                  
PALMDALE       CLEAR     43  37  79 SW3       30.03R                  
*POPPY PARK      N/A     44  38  80 W5G21       N/A                   

CITY           SKY/WX    TMP DP  RH WIND       PRES   REMARKS
29 PALMS       CLEAR     50  39  66 NW5       30.07R                  
BARSTOW/DAGGET CLEAR     45  39  79 W9        30.01R                  
BISHOP         MOCLDY    33  26  75 N6        29.99S WCI  28          
CHINA LAKE     CLEAR     43  35  73 S3        29.98R                  
EDWARDS AFB    CLEAR     41  39  93 S6        29.99R                  
MOJAVE         CLEAR     46  37  71 CALM      30.00S                  
NEEDLES        CLEAR     59  38  45 NW5       29.95R                  
VICTORVILLE    CLEAR     39  36  87 CALM      30.03R                  

$$

CAZ039-040-261500-
VENTURA AND SANTA BARBARA COUNTY COAST

  
CITY           SKY/WX    TMP DP  RH WIND       PRES   REMARKS
CAMARILLO      CLEAR     49  46  90 CALM      30.03R                  
NWS OXNARD       N/A     48  44  88 CALM      30.02R                  
OXNARD AIRPORT CLEAR     51  46  83 E3        30.03R                  
*POINT MUGU    PTCLDY    49  46  90 N3        30.04R                  
SBA APT/GOLETA CLEAR     48  45  89 CALM      30.01R                  
*SANTA BARBARA   N/A     51  46  86 CALM      30.09S                  
*VENTURA         N/A     48  46  92 NE1       30.01R                  

$$

CAZ044-045-261500-
VENTURA COUNTY VALLEYS

  
CITY           SKY/WX    TMP DP  RH WIND       PRES   REMARKS
*SIMI VALLEY     N/A     46  43  90 NE1       30.01R                  
*WESTLAKE VILL   N/A     40  38  91 CALM      30.03R                  
*OJAI            N/A     61  52  71 CALM      29.98S                  

$$

CAZ053-261500-
VENTURA COUNTY MOUNTAINS

  
CITY           SKY/WX    TMP DP  RH WIND       PRES   REMARKS
*LOCKWOOD VLY    N/A     28  28 100 MISG        N/A                   
*FRAZIER MTN     N/A     36 -20   8 CALM      29.76R                  
*ROSE VALLEY     N/A     34  34 100 MISG        N/A                   

$$

CAZ034-035-036-261500-
CENTRAL COAST AND SANTA YNEZ VALLEY

  
CITY           SKY/WX    TMP DP  RH WIND       PRES   REMARKS
SAN LUIS OBISP PTCLDY    51  47  86 W5        30.06R                  
SANTA MARIA    CLEAR     50  49  96 CALM      30.06R                  

CITY           SKY/WX    TMP DP  RH WIND       PRES   REMARKS
*LOMPOC        PTCLDY    45  43  93 E5        30.06R                  
*PISMO BEACH     N/A     51  48  89 CALM      30.06S                  
*SANTA YNEZ    CLOUDY    46  46 100 SE5       30.05S                  

$$

CAZ037-038-051-261500-
SAN LUIS OBISPO COUNTY INTERIOR AND CUYAMA VALLEY

  
CITY           SKY/WX    TMP DP  RH WIND       PRES   REMARKS
*CUYAMA          N/A     47  44  90 CALM      30.03F                  
PASO ROBLES    FOG       42  42 100 CALM      30.09R VSB 1/4          

$$

CAZ032-033-061-261500-
SOUTHERN DESERTS

  
CITY           SKY/WX    TMP DP  RH WIND       PRES   REMARKS
BLYTHE         CLEAR     58  40  51 VRB3      29.94R                  
IMPERIAL       CLEAR     54  42  64 W5        29.92R                  
PALM SPRINGS   CLEAR     59  47  64 CALM      29.95R                  
THERMAL        CLEAR     63  47  55 NW13G22   29.91R                  

$$

ELSEWHERE ACROSS THE WESTERN UNITED STATES AND MEXICO

  
CITY           SKY/WX    TMP DP  RH WIND       PRES   REMARKS
DEATH VALLEY,    N/A     66  36  33 SW5         N/A                   
DENVER, CO     CLOUDY    41  30  65 NW12      29.84R WCI  34          
GRAND CANYON,  PTCLDY    24  23  96 CALM      30.04R                  
HONOLULU, HI   PTCLDY    75  63  64 E9        30.14F                  
KAHULUI, MAUI  CLEAR     73  63  68 NE14G26   30.12S                  
LAKE TAHOE, CA CLOUDY    35  21  56 SW8       30.00R WCI  29          
LAS VEGAS, NV  PTCLDY    53  37  54 S3        29.99R                  
MAMMOTH LAKES, FAIR      25  21  84 CALM      30.04S                  
MEXICO CITY, M SUNNY     57  45  62 NE3       30.32S                  
PHOENIX, AZ    MOCLDY    57  36  45 E5        29.92R                  
PORTLAND, OR   LGT RAIN  46  41  82 SE8       29.90S                  
RENO, NV       MOCLDY    35  30  82 CALM      29.99R                  
SALT LAKE CITY PTCLDY    34  33  96 SE7       30.04R WCI  28          
SAN DIEGO, CA  CLOUDY    59  53  80 N6        30.05R                  
SAN FRANCISCO, CLOUDY    53  46  77 SW3       30.10R                  
SAN JOSE, CA   CLOUDY    51  46  83 CALM      30.10R                  
SEATTLE, WA    CLOUDY    45  38  76 SE9       29.85F                  
TIJUANA, MEX   CLOUDY    55  52  88 CALM      30.04S                  

$$
  
STATION/POSITION TIME  TEMP    WIND        PRES    VSBY  WAVE
                       AIR SEA DIR/SP/G                  HT/PER
                 (UTC) (F)     (DEG/KT/KT) (MB)    (MI)  (FT/S)
POINT ARGUELLO B NOT AVBL
WEST SANTA BARBA 1350   55 56  330/ 17/ 21 1016.9R         8/14
POINT CONCEPTION NOT AVBL
EAST SANTA BARBA 1400           70/  2/  6 1016.8
SANTA MONICA BAY 1400   58 59  350/  4/  6 1016.5

Return to Home page


Western Regional Climate Center, wrcc@dri.edu